User: anonymous   Login
Location: Archemont
(49.1579°N, 1.7598°E)
Time: 16:47:45
(UTC+00:00)
Language:

Explorer 7 - Orbit

View from above orbital plane
View from above orbital plane
View from above satellite
View from above satellite

Ground track
Ground track

The orbit data is extracted from the following two-line orbital elements,

1 00022U 59009A   24103.91411413  .00005641  00000-0  34877-3 0  9999
2 00022  50.2807   4.7273 0115625 214.8261 144.5085 15.05844153679561
Epoch (UTC): 12 April 2024 21:56:19
Eccentricity: 0.0115625
inclination: 50.2807°
perigee height: 469 km
apogee height: 629 km
right ascension of ascending node: 4.7273°
argument of perigee: 214.8261°
revolutions per day: 15.05844153
mean anomaly at epoch: 144.5085°
orbit number at epoch: 67956

The dashed part of the orbit path shows where the satellite is in the earth's shadow,  

DLR